Burlington, NC

1:05 AM EST on December 11, 2017 (GMT -0500)
Burlington-Alamance Regional

Weather History for KBUY - January, 2013

Change the Weather History Date:

Sunday, January 6, 2013

  Actual Average Record
Temperature  
Mean Temperature 46 °F -  
Max Temperature 52 °F 47 °F 50 °F (2015)
Min Temperature 39 °F 28 °F 18 °F (2016)
Degree Days  
Heating Degree Days 20    
Moisture  
Dew Point 34 °F    
Average Humidity 70    
Maximum Humidity 93    
Minimum Humidity 53    
Precipitation  
Precipitation 0.02 in - - ()
Sea Level Pressure  
Sea Level Pressure 30.14 in    
Wind  
Wind Speed 2 mph (SSW)    
Max Wind Speed 6 mph    
Max Gust Speed -    
Visibility 10 miles    
Events Rain    
Averages and records for this station are not official NWS values.
T = Trace of Precipitation, MM = Missing Value Source: NWS Daily Summary

Daily Weather History Graph

Daily Weather History Graph

Search for Another Location

Airport or City:

Trip Planner

Search our weather history database for the weather conditions in past years. The results will help you decide how hot, cold, wet, or windy it might be!

Date:

Astronomy

Jan. 06, 2013 Rise Set
Actual Time 7:29 AM EST 5:18 PM EST
Civil Twilight 7:00 AM EST 5:47 PM EST
Nautical Twilight 6:28 AM EST 6:19 PM EST
Astronomical Twilight 5:57 AM EST 6:50 PM EST
Moon 1:45 AM EST (1/6) 12:41 PM EST (1/6)
Length of Visible Light 10h 46m
Length of Day
9h 49m
Waning Crescent, 33% of the Moon is Illuminated
Jan 6
Waning Crescent
Jan 11
New
Jan 18
First Quarter
Jan 26
Full
Feb 3
Last Quarter

Hourly Weather History & Observations

Time (EST) Temp. Windchill Dew Point Humidity Pressure Visibility Wind Dir Wind Speed Gust Speed Precip Events Conditions
12:54 AM 41.0 °F - 32.0 °F 70% 30.19 in 10.0 mi Calm Calm - N/A   Overcast
1:54 AM 41.0 °F 39.0 °F 30.9 °F 67% 30.21 in 10.0 mi SW 3.5 mph - 0.00 in Rain Light Rain
2:54 AM 39.9 °F - 34.0 °F 79% 30.22 in 10.0 mi Calm Calm - 0.01 in Rain Light Rain
3:54 AM 39.9 °F - 35.1 °F 83% 30.19 in 10.0 mi Calm Calm - 0.01 in   Overcast
4:54 AM 39.9 °F 37.8 °F 35.1 °F 83% 30.16 in 10.0 mi WSW 3.5 mph - 0.00 in   Overcast
5:54 AM 39.0 °F 36.8 °F 34.0 °F 82% 30.16 in 10.0 mi WSW 3.5 mph - N/A   Mostly Cloudy
6:54 AM 39.0 °F - 35.1 °F 86% 30.17 in 10.0 mi Calm Calm - N/A   Mostly Cloudy
7:54 AM 39.0 °F - 37.0 °F 93% 30.17 in 10.0 mi Calm Calm - N/A   Overcast
8:54 AM 41.0 °F - 36.0 °F 82% 30.18 in 10.0 mi Calm Calm - N/A   Overcast
9:54 AM 43.0 °F 41.3 °F 36.0 °F 76% 30.19 in 10.0 mi SW 3.5 mph - N/A   Overcast
10:54 AM 45.0 °F - 35.1 °F 68% 30.18 in 10.0 mi Calm Calm - N/A   Overcast
11:54 AM 46.9 °F - 36.0 °F 66% 30.14 in 10.0 mi South 3.5 mph - N/A   Overcast
12:54 PM 48.9 °F - 35.1 °F 59% 30.10 in 10.0 mi Calm Calm - N/A   Overcast
1:54 PM 51.1 °F - 35.1 °F 54% 30.07 in 10.0 mi Calm Calm - N/A   Overcast
2:54 PM 52.0 °F - 35.1 °F 53% 30.05 in 10.0 mi South 3.5 mph - N/A   Clear
3:54 PM 51.1 °F - 35.1 °F 54% 30.05 in 10.0 mi SE 4.6 mph - N/A   Clear
4:54 PM 50.0 °F - 34.0 °F 54% 30.05 in 10.0 mi SSE 3.5 mph - N/A   Clear
5:54 PM 46.0 °F 43.9 °F 34.0 °F 63% 30.06 in 10.0 mi SSE 4.6 mph - N/A   Clear
6:54 PM 39.9 °F - 34.0 °F 79% 30.09 in 10.0 mi Calm Calm - N/A   Clear
7:54 PM 39.0 °F 36.8 °F 34.0 °F 82% 30.12 in 10.0 mi WNW 3.5 mph - N/A   Overcast
8:54 PM 46.0 °F 43.1 °F 33.1 °F 61% 30.14 in 10.0 mi NNW 5.8 mph - N/A   Overcast
10:54 PM 44.1 °F - 30.9 °F 60% 30.16 in 10.0 mi Calm Calm - N/A   Overcast
11:54 PM 43.0 °F - 30.0 °F 60% 30.18 in 10.0 mi Calm Calm - N/A   Overcast